Terug naar catalogus

STARLINK-32210

ActiefCommunicatieVLEO
NORAD 60594·PAYLOAD·🇺🇸 United States

Gelanceerd Aug 20, 2024 vanaf Cape Canaveral Space Force Station

Loading…

Volgende Passages (komende 24 uur)

TLE

VersSource: CelesTrak SupGP

Epoch: Sep 15, 2026, 02:07 UTC

1 60594C 24150M   26258.08868056 -.00083042  00000+0 -24548-2 0  2581
2 60594  53.1575 143.3522 0001255  93.9567 303.9281 15.34415243    13

Volg STARLINK-32210 in realtime met AllMySat

Download on the App Store